Theta_e
321 320 320 320 319 320 320 319 319 318 318 317 317 317 317 317 320 326 328 329 327 327 326 327 326 325 324 324 324 322 321 320 321 322 321 320 320 319 319 320 320 322 325
319 318 318 318 318 318 318 317 316 315 315 315 316 317 318 319 321 323 324 325 327 326 325 323 323 324 325 325 323 323 322 321 320 318 317 318 319 321 325 325 323 320 321
318 317 317 316 316 316 316 316 316 315 315 314 315 315 316 317 318 318 318 319 321 324 324 324 323 323 324 324 323 324 325 325 324 323 323 322 320 319 319 318 317 323 322
317 316 316 315 315 314 313 313 313 313 313 314 314 314 314 314 314 314 314 314 314 315 316 318 320 323 323 322 322 323 323 322 322 323 321 320 318 317 319 321 323 322 325
316 316 315 314 314 313 313 312 311 311 311 311 311 311 312 312 312 312 312 312 312 313 313 314 314 316 317 319 321 320 320 320 320 321 321 321 320 319 320 322 322 322 321
315 314 314 313 312 311 311 311 310 310 310 310 311 311 310 311 311 311 312 312 312 311 311 311 311 311 313 314 316 317 318 319 320 319 320 320 320 320 318 317 318 317 315
313 313 312 311 310 310 309 309 309 309 309 308 308 309 310 310 311 311 311 312 312 311 310 310 310 309 310 310 311 313 314 315 316 316 317 318 319 318 317 317 316 315 314
313 312 311 310 309 308 307 307 307 307 307 307 307 308 308 308 308 306 305 305 305 305 305 306 306 307 307 307 307 310 311 312 315 317 317 317 317 317 317 317 316 315 314
311 310 309 308 307 307 307 307 306 306 306 305 304 303 303 303 303 303 304 304 303 305 305 304 304 303 304 304 303 304 306 309 311 313 315 316 316 317 317 316 315 317 314
308 308 307 307 306 305 304 302 301 301 301 300 300 300 301 301 302 302 302 300 300 301 302 303 303 302 302 301 301 302 302 304 306 308 309 312 316 316 314 314 314 312 312
307 306 305 304 302 300 299 299 299 299 300 301 301 302 302 302 303 304 304 300 300 299 300 302 301 299 299 300 300 300 301 302 303 305 308 314 313 314 314 313 314 313 313
304 303 302 299 297 297 297 299 301 299 299 301 300 302 304 303 303 305 304 302 300 299 299 299 299 299 299 299 299 301 303 304 304 305 308 312 312 313 313 314 315 314 317
301 298 296 296 297 298 298 298 300 300 299 300 299 300 303 303 303 303 303 301 299 299 299 299 299 300 301 300 301 303 305 306 307 306 309 310 311 312 312 313 315 314 320
296 295 295 297 297 297 298 299 300 300 299 299 299 299 299 301 302 301 299 298 298 299 299 299 300 301 303 303 303 304 305 307 306 307 309 310 310 310 310 310 315 319 320
293 294 295 294 296 297 299 300 301 302 298 297 299 298 299 300 301 300 298 297 297 297 297 298 300 302 303 303 304 306 307 307 308 308 309 308 310 312 313 313 319 319 316
292 293 294 294 296 297 299 303 303 301 302 302 301 300 300 300 300 299 298 297 297 296 296 296 299 302 304 305 305 307 307 308 309 309 309 309 310 313 314 319 317 315 318
291 293 293 294 296 297 298 298 300 306 303 303 302 301 301 300 299 298 298 297 296 296 295 297 299 303 305 307 307 308 309 310 311 311 311 312 313 316 315 316 314 316 316
292 293 293 295 296 297 298 298 297 297 298 301 300 300 300 298 298 297 297 297 296 296 296 298 301 304 305 305 309 309 310 312 313 313 313 314 316 317 316 314 316 314 315
292 293 294 296 297 297 297 297 296 296 297 297 299 301 299 298 297 297 297 297 296 296 296 300 303 303 304 307 309 313 312 313 313 315 315 316 316 318 315 315 315 314 314
292 293 293 294 296 296 296 295 296 297 298 298 299 299 299 298 298 298 298 297 297 299 301 302 304 308 309 309 310 311 314 316 316 314 317 317 318 318 316 315 316 317 319
291 292 292 293 294 295 294 295 296 296 297 298 299 300 298 298 299 299 299 299 298 301 302 305 307 311 311 311 312 314 315 315 315 317 317 317 318 318 317 316 318 319 319
291 291 291 292 293 294 294 294 295 295 296 297 299 300 299 299 299 300 300 300 300 302 305 307 310 312 312 315 315 315 315 315 315 315 317 318 316 315 316 318 316 318 322
290 291 291 292 292 293 293 293 294 295 295 297 298 300 299 299 299 299 301 303 303 304 306 308 311 312 313 314 316 315 316 318 318 318 318 316 315 315 315 319 321 323 322
291 291 290 291 292 291 292 292 293 294 294 296 298 300 300 300 300 300 301 302 303 305 308 310 312 313 313 314 316 315 316 316 316 316 315 315 315 316 318 322 324 323 322
290 290 291 291 291 291 291 291 291 292 294 295 297 299 300 301 301 301 301 302 304 305 309 310 310 313 312 313 314 315 315 315 315 315 316 316 315 317 318 321 323 322 322
290 290 290 291 291 291 290 290 290 291 292 294 295 297 299 300 301 301 301 303 304 305 307 308 310 311 313 313 313 315 315 315 316 316 316 321 323 323 323 324 323 323 322
Wind_Speed
6 8 9 12 13 13 16 17 17 19 21 22 24 25 26 26 27 31 34 36 36 35 33 34 36 35 35 32 32 32 32 32 33 28 24 27 29 33 36 30 32 29 26
8 10 12 14 14 16 19 21 21 23 24 25 26 27 27 28 28 29 31 35 38 41 43 44 42 40 41 40 42 42 41 39 38 42 37 34 31 25 21 22 23 30 32
11 13 15 17 19 21 22 24 26 27 28 29 29 30 31 32 33 32 33 34 35 36 38 41 43 43 42 41 43 41 37 36 36 37 35 24 28 31 35 38 35 24 27
16 18 20 22 24 27 29 28 27 27 27 28 29 30 31 31 31 31 33 34 36 37 37 37 36 38 44 46 44 43 45 44 43 42 41 40 38 37 32 30 26 25 25
20 21 23 26 26 26 28 29 31 31 33 33 34 34 33 33 33 32 33 36 38 40 40 40 38 35 37 36 38 43 45 44 41 39 39 35 34 36 31 21 24 27 31
23 25 26 28 29 28 29 30 31 31 30 29 30 32 33 34 33 36 40 43 43 44 46 49 49 48 46 43 41 38 39 43 43 41 38 35 34 28 27 25 25 30 37
24 26 27 28 29 29 29 28 28 29 30 33 35 34 33 35 38 41 44 46 48 50 51 52 52 51 49 46 48 46 38 36 41 47 48 43 40 41 41 33 30 33 39
26 27 28 28 29 29 30 32 31 32 35 38 41 42 42 47 51 51 47 49 51 52 52 52 52 54 53 53 52 52 48 47 39 34 38 49 50 47 41 36 36 35 40
26 28 29 28 29 29 29 33 38 41 45 49 50 49 49 51 52 49 41 36 36 38 38 38 38 40 43 45 46 45 49 57 54 47 33 33 41 42 42 38 36 26 30
27 27 27 27 29 34 41 45 44 39 42 46 49 47 43 41 37 34 31 31 37 40 40 40 39 40 36 33 33 37 45 47 47 53 51 39 33 33 30 26 29 31 30
24 26 29 34 40 38 35 37 42 44 39 34 35 35 34 33 31 29 27 29 33 37 37 35 34 33 32 28 26 33 41 42 43 38 42 36 39 37 33 26 30 32 31
28 32 37 40 35 38 42 37 32 32 33 34 34 33 32 31 28 27 25 23 23 25 29 30 31 31 31 30 32 32 25 26 32 32 33 32 33 33 29 26 29 29 24
36 38 37 38 42 33 31 31 31 29 31 33 32 33 31 29 29 28 26 25 26 29 27 28 27 29 28 29 29 25 23 26 32 34 25 32 29 34 34 30 26 24 25
40 41 39 37 33 32 29 27 28 29 31 32 31 31 30 28 29 30 28 27 24 21 24 26 28 28 24 24 22 23 21 18 26 24 19 22 24 25 28 30 23 22 20
37 37 34 33 31 29 26 27 27 28 27 27 27 28 29 29 31 29 29 29 24 26 27 28 25 21 19 19 19 14 11 13 18 21 25 25 25 25 24 23 26 24 23
36 33 31 29 28 26 27 29 28 26 22 23 23 24 25 29 31 27 25 26 25 27 31 30 24 17 16 16 14 17 18 22 24 23 27 27 24 23 21 27 22 20 21
30 29 27 26 25 25 26 27 30 26 26 27 27 24 23 33 31 26 24 24 22 19 22 22 21 17 13 15 18 19 24 22 24 22 18 18 20 17 19 17 17 32 25
26 24 23 23 23 23 23 26 27 31 34 35 28 23 26 29 24 20 18 17 17 17 18 18 17 15 19 19 15 22 22 20 20 18 19 18 17 23 24 23 26 34 34
24 22 21 22 21 22 23 25 28 28 28 30 27 23 25 28 18 15 13 12 12 10 10 10 12 16 17 16 16 16 18 18 20 18 18 20 21 25 22 21 29 40 38
21 19 20 22 22 21 22 24 26 26 27 27 24 22 25 27 14 15 16 12 8 3 3 12 12 14 17 19 16 18 15 16 17 17 16 16 19 20 21 30 31 26 25
21 21 21 22 21 20 21 24 24 24 24 25 23 18 19 22 13 14 16 11 0 4 6 12 15 14 9 15 19 15 11 14 14 17 16 17 21 23 25 27 22 28 27
20 21 22 22 22 21 21 22 22 22 21 22 21 18 17 15 14 14 13 8 1 1 6 9 12 14 14 9 4 3 6 8 12 15 17 20 24 30 31 31 35 28 23
24 23 24 23 22 22 21 22 21 21 20 20 18 16 17 14 13 14 7 7 3 3 8 9 11 14 10 4 3 1 6 9 11 12 16 26 29 35 26 17 18 28 21
25 26 28 27 26 26 25 24 23 22 21 19 17 13 14 12 13 12 9 2 2 4 2 9 10 10 7 7 9 7 7 11 13 19 26 20 21 29 25 25 18 30 29
33 32 31 32 33 31 30 28 27 25 22 20 17 13 8 10 10 11 10 2 6 3 3 10 14 15 11 5 5 5 8 4 14 28 33 33 29 22 17 25 19 23 23
34 35 35 35 36 36 36 35 32 29 26 22 19 14 11 9 10 8 6 3 8 4 3 5 12 12 12 11 5 10 15 6 19 20 18 5 18 22 22 26 28 21 19
Wind_Direction
326 321 316 308 302 291 284 287 286 282 280 278 276 274 274 274 266 258 259 259 257 256 261 262 260 260 261 260 263 265 265 268 275 276 274 277 282 284 289 289 283 288 294
310 310 307 303 300 293 292 290 287 281 278 277 276 274 274 272 267 264 267 266 263 263 260 260 261 259 258 259 262 263 262 262 265 274 277 278 282 293 293 285 288 294 286
303 301 294 294 291 291 289 287 286 287 286 284 281 275 271 267 266 267 268 268 268 269 270 268 266 264 262 260 255 259 262 265 268 268 269 265 273 276 278 282 291 289 281
300 300 297 297 295 295 297 299 297 293 289 286 281 279 276 273 271 272 271 270 269 269 267 266 268 267 266 267 263 259 258 259 259 262 268 271 275 283 284 282 277 293 293
299 296 296 298 299 297 294 292 291 291 290 289 288 284 279 279 279 280 276 271 269 267 264 262 260 261 260 261 266 262 260 259 258 257 260 263 265 269 269 265 275 281 283
298 299 298 298 298 299 296 294 294 293 290 286 283 282 280 280 279 272 269 270 271 273 274 270 268 264 260 258 258 259 266 262 260 255 256 254 252 258 271 284 285 287 293
297 297 299 299 299 298 297 296 295 293 290 287 286 285 278 270 265 264 264 267 271 274 276 275 274 272 270 266 263 259 261 260 258 260 256 253 255 258 266 273 279 282 285
298 299 300 300 299 299 299 298 296 288 283 281 280 276 274 272 274 278 279 279 277 276 275 274 275 273 271 271 267 259 258 255 254 253 254 255 257 261 261 266 273 275 281
301 300 300 300 300 300 293 285 281 281 281 282 283 284 282 285 284 284 282 280 280 282 284 280 279 278 275 275 271 267 265 257 251 253 255 262 256 257 258 262 268 267 278
302 299 296 290 288 286 286 290 293 292 289 291 290 289 289 290 290 289 285 278 278 282 285 285 285 284 281 274 269 269 262 261 260 255 259 261 254 246 258 245 256 264 273
294 288 287 289 295 298 292 291 295 295 295 299 302 303 301 299 298 295 290 280 277 281 283 284 286 285 285 280 273 261 265 266 263 261 246 248 244 245 251 250 254 259 264
293 293 294 300 299 299 302 301 303 308 307 307 307 306 305 307 304 301 295 286 283 279 279 282 288 292 284 275 276 266 268 266 254 252 243 248 244 239 241 249 250 254 254
296 301 304 302 307 306 309 311 309 310 310 312 310 308 307 308 306 304 301 291 284 279 274 278 278 287 278 274 270 253 274 261 246 241 240 241 246 241 241 247 253 250 238
305 305 309 311 317 317 313 312 313 313 312 311 309 308 308 308 305 307 303 293 288 274 273 266 279 286 278 272 260 251 279 233 226 234 237 231 233 239 245 241 241 225 223
308 312 317 316 316 317 317 318 317 316 315 312 309 305 301 304 308 301 292 283 275 270 270 275 279 283 284 270 245 241 238 221 227 233 237 241 235 231 240 225 216 219 226
315 319 319 320 322 322 323 322 322 325 327 323 317 314 310 314 313 301 292 285 276 267 268 269 270 274 273 264 250 238 240 247 243 248 237 233 235 231 224 200 197 197 212
319 321 323 323 322 324 326 326 327 331 328 327 327 324 322 322 313 298 290 282 273 267 262 260 254 257 271 273 259 256 255 254 237 241 241 239 222 207 214 199 202 177 162
325 325 324 325 328 329 329 331 333 331 331 332 335 332 332 322 315 306 296 283 273 262 256 247 245 244 256 285 282 266 263 247 235 238 226 217 214 201 190 208 197 180 176
329 330 331 330 330 330 333 334 335 330 328 330 334 340 337 334 335 339 321 295 287 274 253 245 256 272 273 270 277 275 248 238 236 231 226 225 217 197 190 190 182 171 176
337 338 338 334 332 334 336 331 329 332 334 335 336 341 340 336 346 344 344 331 302 196 256 265 272 305 304 298 293 288 267 223 230 227 224 218 209 202 194 193 191 194 188
345 346 346 342 339 337 331 330 333 334 336 339 339 339 345 336 346 351 342 339 147 325 296 313 316 338 308 299 290 274 239 235 220 205 220 206 202 204 201 194 207 207 200
1 357 353 350 347 344 343 344 344 344 343 344 345 348 348 344 340 346 354 348 338 238 350 322 1 356 330 318 189 270 272 236 224 219 206 182 186 190 195 188 196 180 172
17 10 8 4 360 358 356 355 354 353 351 351 352 355 356 358 356 350 357 10 344 351 328 340 21 5 359 331 44 257 149 112 157 164 186 178 178 185 191 170 183 168 168
25 22 18 15 14 12 8 3 0 357 356 354 358 0 358 358 358 352 345 291 312 289 310 40 54 2 358 25 92 97 123 103 133 145 171 175 197 198 230 192 161 162 166
31 30 26 25 23 19 16 12 7 4 1 1 356 358 343 344 350 3 1 330 290 260 116 61 41 35 34 25 33 58 184 138 154 161 170 186 212 239 158 160 157 156 159
28 29 30 28 26 25 23 18 13 8 4 360 359 353 347 329 341 346 15 33 338 299 290 11 45 38 46 12 19 116 157 180 166 212 260 175 132 141 158 157 155 142 155